FW2392 Weather Reports


time (UTC)temp
C
wind
direction
speed
KPH
gust
KPH
rain 1hr
cm
rain 24hr
cm
rain mn
cm
humidity
%
barometer
mb
20260505040003 17 213 11.3 25.7 0.00 0.00 0.00 59 1009.5
20260505035402 18 217 12.9 20.9 0.00 0.00 0.00 58 1009.5
20260505034502 18 216 12.9 25.7 0.00 0.00 0.00 58 1009.4
20260505033602 18 219 11.3 22.5 0.00 0.00 0.00 57 1009.4
20260505032703 17 214 11.3 22.5 0.00 0.00 0.00 57 1009.4
20260505031803 17 214 11.3 22.5 0.00 0.00 0.00 57 1009.4
20260505030903 18 215 11.3 17.7 0.00 0.00 0.00 57 1009.4
20260505030003 18 214 11.3 24.1 0.00 0.00 0.00 56 1009.4
20260505025403 18 214 11.3 19.3 0.00 0.00 0.00 56 1009.5
20260505024502 18 212 11.3 17.7 0.00 0.00 0.00 56 1009.5
20260505023603 18 211 9.7 16.1 0.00 0.00 0.00 56 1009.6
20260505022702 18 207 8.0 16.1 0.00 0.00 0.00 56 1009.6
20260505021803 18 208 8.0 14.5 0.00 0.00 0.00 55 1009.5
20260505020902 18 208 8.0 14.5 0.00 0.00 0.00 54 1009.6
20260505020003 18 200 8.0 14.5 0.00 0.00 0.00 54 1009.4
20260505015402 18 204 8.0 14.5 0.00 0.00 0.00 53 1009.4
20260505014504 18 208 8.0 16.1 0.00 0.00 0.00 53 1009.6
20260505013602 19 213 9.7 16.1 0.00 0.00 0.00 53 1009.5
20260505012703 18 213 9.7 17.7 0.00 0.00 0.00 52 1009.4
20260505011803 18 207 8.0 16.1 0.00 0.00 0.00 52 1009.2
20260505010904 19 210 9.7 16.1 0.00 0.00 0.00 52 1009.1
20260505010003 19 202 8.0 17.7 0.00 0.00 0.00 51 1009.0
20260505005403 19 202 8.0 16.1 0.00 0.00 0.00 51 1009.0
20260505004502 19 203 8.0 14.5 0.00 0.00 0.00 50 1008.9
20260505003602 19 202 8.0 12.9 0.00 0.00 0.00 50 1008.9
20260505002703 20 208 8.0 17.7 0.00 0.00 0.00 50 1008.9
20260505001803 20 209 9.7 17.7 0.00 0.00 0.00 49 1009.0
20260505000903 20 211 9.7 17.7 0.00 0.00 0.00 48 1008.8
20260505000003 20 209 9.7 17.7 0.00 0.00 0.00 47 1008.8
20260504235403 20 208 9.7 16.1 0.00 0.00 0.00 47 1008.7
20260504234523 20 211 9.7 22.5 0.00 0.00 0.00 30 1008.7
20260504233602 21 210 12.9 22.5 0.00 0.00 0.00 45 1008.6
20260504232723 21 213 11.3 22.5 0.00 0.00 0.00 29 1008.6
20260504231802 21 215 11.3 22.5 0.00 0.00 0.00 29 1008.6
20260504230903 22 212 9.7 22.5 0.00 0.00 0.00 43 1008.6
20260504230003 22 207 11.3 29.0 0.00 0.00 0.00 28 1008.6
20260504225402 22 209 12.9 29.0 0.00 0.00 0.00 26 1008.5
20260504224503 22 213 12.9 29.0 0.00 0.00 0.00 44 1008.6
20260504223603 22 203 11.3 22.5 0.00 0.00 0.00 29 1008.5
20260504222703 22 204 12.9 24.1 0.00 0.00 0.00 42 1008.5
20260504221803 22 207 11.3 29.0 0.00 0.00 0.00 42 1008.4
20260504220903 22 208 11.3 29.0 0.00 0.00 0.00 43 1008.2
20260504220003 22 224 11.3 24.1 0.00 0.00 0.00 43 1008.5
20260504215403 22 229 12.9 24.1 0.00 0.00 0.00 43 1008.6
20260504214503 22 195 11.3 24.1 0.00 0.00 0.00 41 1008.5
20260504213603 22 216 11.3 25.7 0.00 0.00 0.00 42 1008.5
20260504212703 22 218 14.5 25.7 0.00 0.00 0.00 42 1008.7
20260504211824 22 224 11.3 25.7 0.00 0.00 0.00 42 1008.7
20260504210903 22 216 12.9 29.0 0.00 0.00 0.00 43 1008.8
20260504210003 22 222 14.5 29.0 0.00 0.00 0.00 43 1008.7
20260504205403 22 216 16.1 29.0 0.00 0.00 0.00 43 1008.7
20260504204524 22 228 12.9 25.7 0.00 0.00 0.00 43 1008.6
20260504203602 22 218 12.9 27.4 0.00 0.00 0.00 45 1008.8
20260504202724 22 221 12.9 27.4 0.00 0.00 0.00 44 1008.7
20260504201803 22 222 14.5 27.4 0.00 0.00 0.00 44 1008.9
20260504200902 22 242 14.5 27.4 0.00 0.00 0.00 45 1009.1
20260504200003 22 251 11.3 27.4 0.00 0.00 0.00 45 1009.4
20260504195403 22 225 9.7 27.4 0.00 0.00 0.00 44 1009.4
20260504194524 21 214 12.9 29.0 0.00 0.00 0.00 31 1009.5
20260504193604 21 234 12.9 37.0 0.00 0.00 0.00 46 1009.6
20260504192703 21 215 16.1 37.0 0.00 0.00 0.00 47 1009.8
20260504191803 21 232 12.9 24.1 0.00 0.00 0.00 29 1010.1
20260504190903 21 226 12.9 24.1 0.00 0.00 0.00 49 1010.1
20260504190003 21 223 11.3 22.5 0.00 0.00 0.00 28 1010.3
20260504185403 21 220 9.7 20.9 0.00 0.00 0.00 31 1010.5
20260504184503 21 229 9.7 24.1 0.00 0.00 0.00 46 1010.5
20260504183624 21 214 12.9 24.1 0.00 0.00 0.00 43 1010.8
20260504182703 21 212 11.3 24.1 0.00 0.00 0.00 46 1010.8
20260504181803 21 218 12.9 25.7 0.00 0.00 0.00 44 1010.9
20260504180903 20 211 11.3 27.4 0.00 0.00 0.00 46 1011.1
20260504180002 20 221 12.9 29.0 0.00 0.00 0.00 48 1011.2
20260504175423 20 228 14.5 29.0 0.00 0.00 0.00 44 1010.9
20260504174503 20 242 11.3 29.0 0.00 0.00 0.00 45 1011.2
20260504173603 20 233 14.5 29.0 0.00 0.00 0.00 46 1011.3
20260504172702 20 225 14.5 29.0 0.00 0.00 0.00 45 1011.4
20260504171803 20 238 12.9 24.1 0.00 0.00 0.00 46 1011.6
20260504170903 20 250 11.3 25.7 0.00 0.00 0.00 33 1011.7
20260504150903 17 261 12.9 25.7 0.00 0.00 0.00 48 1013.0
20260504140903 16 215 9.7 22.5 0.00 0.00 0.00 48 1013.0
20260504081803 9 191 4.8 9.7 0.00 0.00 0.00 55 1014.1
20260504080923 9 185 3.2 9.7 0.00 0.00 0.00 54 1014.2
20260504050024 8 233 4.8 8.0 0.00 0.00 0.00 54 1014.7
20260504045403 8 258 3.2 8.0 0.00 0.00 0.00 54 1014.6
20260504044503 7 294 1.6 4.8 0.00 0.00 0.00 57 1014.6
20260504043604 7 294 0.0 3.2 0.00 0.00 0.00 61 1014.7
20260504042703 7 294 0.0 3.2 0.00 0.00 0.00 60 1014.5
20260504041803 7 294 0.0 3.2 0.00 0.00 0.00 59 1014.4
20260504040903 8 294 1.6 3.2 0.00 0.00 0.00 58 1014.3